This is the latest recevied weather packets stored in our database for station/object KA2FNK. If no packets are shown the sender has not sent any weather packets the latest 10 day(s).
| Time | Temp. | Humidity | Pressure | Rain* | Wind** | Luminosity | Snow |
|---|---|---|---|---|---|---|---|
| 1777828783 | 22.22° C | 44% | 1011.9 hPa | 0 mm | - | - | - |
| 1777828480 | 22.22° C | 43% | 1012 hPa | 0 mm | - | - | - |
| 1777828180 | 22.22° C | 44% | 1012.1 hPa | 0 mm | - | - | - |
| 1777827878 | 22.22° C | 44% | 1012.2 hPa | 0 mm | - | - | - |
| 1777827577 | 22.22° C | 45% | 1012.2 hPa | 0 mm | - | - | - |
| 1777827276 | 22.22° C | 45% | 1012.2 hPa | 0 mm | - | - | - |
| 1777826975 | 21.67° C | 44% | 1012.4 hPa | 0 mm | - | - | - |
| 1777826674 | 21.67° C | 47% | 1012.5 hPa | 0 mm | - | - | - |
| 1777826374 | 21.67° C | 46% | 1012.6 hPa | 0 mm | - | - | - |
| 1777826072 | 21.11° C | 46% | 1012.8 hPa | 0 mm | - | - | - |
| 1777825771 | 21.11° C | 46% | 1012.9 hPa | 0 mm | - | - | - |
| 1777825471 | 21.11° C | 47% | 1012.9 hPa | 0 mm | - | - | - |
| 1777825169 | 20.56° C | 47% | 1012.8 hPa | 0 mm | - | - | - |
| 1777824868 | 20.56° C | 47% | 1013 hPa | 0 mm | - | - | - |
| 1777824567 | 20.56° C | 47% | 1012.9 hPa | 0 mm | - | - | - |
| 1777824266 | 20° C | 48% | 1012.8 hPa | 0 mm | - | - | - |
| 1777823965 | 20° C | 47% | 1012.8 hPa | 0 mm | - | - | - |
| 1777823664 | 20.56° C | 46% | 1012.8 hPa | 0 mm | - | - | - |
| 1777823363 | 20.56° C | 47% | 1012.8 hPa | 0 mm | - | - | - |
| 1777823062 | 20° C | 48% | 1012.9 hPa | 0 mm | - | - | - |
| 1777822761 | 20° C | 49% | 1012.9 hPa | 0 mm | - | - | - |
| 1777822461 | 20° C | 48% | 1013 hPa | 0 mm | - | - | - |
| 1777822160 | 19.44° C | 49% | 1013 hPa | 0 mm | - | - | - |
| 1777821858 | 19.44° C | 50% | 1012.8 hPa | 0 mm | - | - | - |
| 1777821557 | 19.44° C | 48% | 1012.8 hPa | 0 mm | - | - | - |
* Rain latest hour (hover to see other rain measurements)
** Current wind speed in m/s (hover to see current wind gust speed)